Snowfall_Accumulation
0.0 0.0 0.0 0.0 0.0 0.0 0.0 0.0 0.0 0.0 0.0 0.0 0.0 0.0 0.0 0.0 0.0 0.0 0.0 0.0 0.0 0.0 0.0 0.0 0.0 0.0 0.0 0.0 0.0 0.0 0.0 0.0 0.2 0.0 0.0 0.0 0.0 0.0 0.0 0.0 0.0 0.0 0.0
0.0 0.0 0.0 0.0 0.0 0.0 0.0 0.0 0.0 0.0 0.0 0.0 0.0 0.0 0.0 0.0 0.0 0.0 0.0 0.0 0.0 0.0 0.0 0.0 0.0 0.0 0.0 0.0 0.0 0.0 0.0 0.0 0.0 0.1 0.0 0.0 0.0 0.0 0.0 0.0 0.0 0.0 0.0
0.0 0.0 0.0 0.0 0.0 0.0 0.0 0.0 0.0 0.0 0.0 0.0 0.0 0.0 0.0 0.0 0.0 0.0 0.0 0.0 0.0 0.0 0.0 0.0 0.0 0.0 0.0 0.0 0.0 0.0 0.0 0.0 0.0 0.4 0.4 0.0 0.0 0.0 0.0 0.0 0.0 0.0 0.0
0.0 0.0 0.0 0.0 0.0 0.0 0.0 0.0 0.0 0.0 0.0 0.0 0.0 0.0 0.0 0.0 0.0 0.0 0.0 0.0 0.0 0.0 0.0 0.0 0.0 0.0 0.0 0.0 0.0 0.0 0.0 0.1 0.1 0.4 0.3 0.3 0.3 0.2 0.1 0.1 0.1 0.0 0.0
0.0 0.0 0.0 0.0 0.0 0.0 0.0 0.0 0.0 0.0 0.0 0.0 0.0 0.0 0.0 0.0 0.0 0.0 0.0 0.0 0.0 0.0 0.0 0.0 0.0 nan nan nan 0.0 0.0 0.0 0.4 0.6 0.7 0.7 0.6 0.6 0.5 0.3 0.3 0.2 0.2 0.1
0.0 0.0 0.0 0.0 0.0 0.0 0.0 0.0 0.0 0.0 0.0 0.0 0.0 0.0 0.0 0.0 nan nan 0.0 0.0 0.0 0.0 0.0 0.0 0.0 0.0 0.0 nan nan nan nan 0.2 0.4 0.8 0.9 0.8 0.1 0.5 0.4 0.4 0.4 0.6 1.8
0.0 0.0 0.0 0.0 0.0 0.0 0.0 0.0 0.0 0.0 0.0 0.0 0.0 0.0 0.0 0.0 nan nan nan 0.0 0.0 0.0 0.0 0.0 0.0 0.0 nan 0.0 nan nan nan nan 0.0 0.2 1.3 0.3 0.1 0.0 0.0 0.1 0.2 0.3 0.5
0.0 0.0 0.0 0.0 0.0 0.0 0.0 0.0 0.0 0.0 0.0 0.0 0.0 0.0 0.0 0.0 nan nan nan 0.0 0.0 0.0 0.0 0.0 0.0 0.0 0.0 0.2 0.1 0.0 0.0 0.0 0.0 0.1 0.5 0.5 0.0 0.0 0.0 0.0 0.0 0.1 0.2
0.0 0.0 0.0 0.0 0.0 0.0 0.0 0.0 0.0 0.0 0.0 0.0 0.0 0.0 0.0 0.0 nan nan 0.0 0.0 0.0 0.0 0.0 0.0 0.0 0.1 nan nan 0.9 0.8 0.3 0.0 nan nan nan nan nan nan nan 0.3 1.2 2.8 3.4
0.0 0.0 0.0 0.0 0.0 0.0 0.0 0.0 0.0 0.0 0.0 0.1 0.0 0.0 nan 0.0 nan nan nan 0.0 0.1 0.3 0.0 0.0 nan 0.0 nan nan 1.3 2.2 2.4 0.7 0.6 0.3 0.2 0.1 nan nan nan 0.1 0.5 1.7 1.4
0.0 0.0 0.0 0.0 0.0 0.0 0.0 0.0 0.0 0.0 0.0 0.0 0.0 0.0 0.0 0.0 0.0 nan nan 0.1 0.8 1.4 0.7 0.6 0.3 nan nan nan nan 1.9 3.2 1.0 2.3 2.0 1.7 1.4 0.5 0.3 0.6 0.4 0.1 0.5 1.6
0.0 0.0 0.0 0.0 0.0 0.0 0.0 0.0 0.0 0.0 0.0 0.1 0.1 0.5 0.6 0.0 nan nan nan nan nan 1.1 1.3 1.4 1.5 nan nan nan 1.8 nan nan 1.0 4.4 6.5 6.9 6.4 4.6 3.5 1.4 0.8 0.1 0.3 0.5
0.0 0.0 0.0 0.0 0.0 0.0 0.0 0.0 0.4 0.0 0.5 0.2 1.0 1.0 0.9 0.6 0.6 nan nan nan nan 2.1 1.7 2.2 nan nan nan 0.6 nan nan 2.2 5.5 8.0 11.8 10.0 7.8 4.5 2.6 2.2 4.0 2.6 2.4 2.0
0.0 0.0 0.0 0.0 0.0 0.0 0.2 0.3 0.6 0.8 1.1 1.1 1.5 1.8 1.4 1.2 1.0 1.1 1.5 1.3 nan 2.4 0.7 4.0 2.1 3.0 1.3 2.9 4.6 5.5 6.1 6.6 8.8 10.1 9.7 7.5 6.3 7.5 7.0 4.0 6.2 5.4 7.4
0.0 0.0 0.0 0.0 0.0 0.1 0.1 0.3 0.6 0.3 1.2 2.2 2.5 2.5 4.3 5.9 3.1 1.5 2.2 2.8 2.8 2.2 2.8 3.7 4.9 4.6 5.8 5.8 5.6 6.4 6.3 7.2 8.8 8.3 8.2 7.6 6.3 5.0 5.0 3.2 3.6 4.1 5.2
0.0 0.0 0.3 0.5 0.5 0.6 1.0 1.7 nan nan nan nan nan 2.0 2.6 nan nan nan nan nan nan nan 6.2 8.3 11.2 10.7 9.0 6.7 6.3 6.0 4.4 4.2 4.9 4.8 5.0 4.7 5.1 5.2 5.0 4.2 3.3 3.9 5.3
0.1 0.1 0.8 1.0 1.1 1.5 1.9 2.5 4.8 2.3 nan nan nan nan nan nan nan nan nan nan nan nan 5.9 4.7 8.1 8.6 5.3 4.7 6.3 4.6 5.9 4.9 2.2 3.7 4.0 4.3 4.3 4.0 4.4 4.1 4.6 4.2 4.9
0.3 0.5 1.4 1.8 2.5 2.8 2.5 2.6 3.3 4.4 5.8 5.0 nan nan nan nan nan nan nan nan 4.2 nan 3.3 5.8 6.9 7.0 6.0 6.8 7.2 6.1 4.6 4.4 4.4 4.4 4.9 5.6 5.8 5.5 5.8 4.5 3.6 5.2 3.8
0.6 1.2 1.3 1.5 1.8 1.8 1.9 2.0 2.5 3.5 3.8 3.4 2.7 1.5 1.3 nan nan nan nan 3.3 4.8 3.2 2.7 3.0 3.4 3.2 3.6 3.4 4.8 5.2 5.3 5.6 5.6 9.1 6.4 6.7 10.5 4.5 5.2 3.5 3.1 2.8 3.2
0.8 0.3 0.8 1.4 1.7 1.8 1.9 2.3 2.7 3.2 3.5 3.6 3.7 3.0 3.1 2.5 7.4 11.9 7.1 9.4 6.4 3.4 3.2 2.5 2.3 2.2 2.6 2.6 5.0 7.2 6.9 6.3 5.2 4.6 8.6 11.8 9.9 4.9 6.1 5.2 5.4 6.7 3.9
1.0 1.3 0.1 0.8 1.1 1.6 1.8 2.4 2.2 2.8 3.1 3.1 3.6 4.9 0.4 2.0 3.8 3.8 3.5 4.6 3.3 2.4 3.9 2.1 2.6 3.1 3.2 3.7 2.7 4.0 2.2 8.5 3.5 4.0 4.1 4.9 19.1 9.5 4.0 3.4 3.9 2.7 2.7
1.1 1.1 1.2 1.9 1.2 1.8 1.6 1.4 2.2 2.5 2.6 2.8 3.0 3.0 2.0 3.1 2.5 2.5 2.4 4.8 7.7 2.3 2.0 2.5 2.1 1.8 2.0 2.4 2.8 7.4 6.2 9.1 6.7 5.3 5.0 5.8 4.8 5.0 4.5 4.7 5.5 5.5 3.8
1.0 1.7 1.6 1.5 1.3 3.7 2.5 1.7 2.4 2.9 2.4 2.8 2.4 3.8 3.5 4.0 4.4 3.1 4.1 6.5 2.9 3.4 2.6 2.0 4.4 2.9 2.2 3.2 2.8 2.3 5.0 4.4 4.4 5.1 8.0 7.6 5.2 5.5 7.5 5.8 4.6 5.2 5.2
1.3 2.1 1.8 2.2 2.9 1.8 3.1 5.0 3.1 4.7 2.3 3.6 7.3 6.6 4.7 3.6 10.0 8.3 8.3 10.2 6.1 7.9 7.9 8.6 3.1 2.3 2.4 7.6 4.1 3.0 2.6 4.3 3.3 3.8 3.7 6.4 5.3 3.9 5.9 5.8 5.1 5.0 5.4
2.9 4.7 4.3 3.2 3.1 5.3 7.6 4.7 5.7 6.2 5.7 7.4 10.0 7.5 3.0 5.7 5.0 12.2 9.3 7.0 6.9 10.5 5.4 7.2 5.8 3.5 4.3 4.3 3.7 1.3 2.2 3.6 5.0 4.3 5.3 3.0 4.9 6.0 6.2 5.4 7.4 6.0 5.4
1.8 2.1 3.2 3.7 4.4 6.8 7.5 11.1 10.0 7.8 8.4 9.0 9.2 10.7 7.1 5.4 4.8 10.5 8.1 7.8 7.5 7.1 6.3 6.5 5.2 4.1 3.8 3.5 2.2 4.9 5.1 5.0 8.7 5.2 8.5 4.5 7.6 7.7 7.1 6.0 5.1 6.2 3.8
Water_Equivalent
0.00 0.00 0.00 0.00 0.00 0.00 0.00 0.00 0.00 0.00 0.00 0.00 0.00 0.00 0.00 0.00 0.00 0.00 0.00 0.00 0.00 0.00 0.00 0.00 0.00 0.00 0.00 0.00 0.00 0.00 0.00 0.00 0.03 0.00 0.00 0.00 0.00 0.00 0.00 0.00 0.00 0.00 0.00
0.00 0.00 0.00 0.00 0.00 0.00 0.00 0.00 0.00 0.00 0.00 0.00 0.00 0.00 0.00 0.00 0.00 0.00 0.00 0.00 0.00 0.00 0.00 0.00 0.00 0.00 0.00 0.00 0.00 0.00 0.00 0.00 0.01 0.02 0.00 0.00 0.00 0.00 0.00 0.00 0.00 0.00 0.00
0.00 0.00 0.00 0.00 0.00 0.00 0.00 0.00 0.00 0.00 0.00 0.00 0.00 0.00 0.00 0.00 0.00 0.00 0.00 0.00 0.00 0.00 0.00 0.00 0.00 0.00 0.00 0.00 0.00 0.00 0.00 0.00 0.01 0.09 0.11 0.01 0.00 0.00 0.00 0.00 0.00 0.00 0.00
0.00 0.00 0.00 0.00 0.00 0.00 0.00 0.00 0.00 0.00 0.00 0.00 0.00 0.00 0.00 0.00 0.00 0.00 0.00 0.00 0.00 0.00 0.00 0.00 0.00 0.00 0.00 0.00 0.00 0.01 0.01 0.01 0.02 0.09 0.11 0.11 0.10 0.07 0.03 0.05 0.04 0.01 0.00
0.00 0.00 0.00 0.00 0.00 0.00 0.00 0.00 0.00 0.00 0.00 0.00 0.00 0.00 0.00 0.00 0.00 0.00 0.00 0.00 0.00 0.00 0.00 0.00 0.00 nan nan nan 0.00 0.01 0.01 0.07 0.14 0.16 0.20 0.19 0.22 0.19 0.12 0.13 0.10 0.07 0.05
0.00 0.00 0.00 0.00 0.00 0.00 0.00 0.00 0.00 0.00 0.00 0.00 0.00 0.00 0.00 0.00 nan nan 0.00 0.00 0.00 0.00 0.00 0.00 0.00 0.00 0.00 nan nan nan nan 0.02 0.05 0.16 0.20 0.16 0.02 0.16 0.15 0.14 0.16 0.19 0.46
0.00 0.00 0.00 0.00 0.00 0.00 0.00 0.00 0.00 0.00 0.00 0.00 0.00 0.00 0.00 0.00 nan nan nan 0.00 0.00 0.00 0.00 0.00 0.00 0.00 nan 0.00 nan nan nan nan 0.00 0.03 0.14 0.05 0.03 0.01 0.01 0.03 0.04 0.09 0.15
0.00 0.00 0.00 0.00 0.00 0.00 0.00 0.00 0.00 0.00 0.00 0.00 0.00 0.00 0.00 0.00 nan nan nan 0.00 0.00 0.00 0.00 0.00 0.00 0.00 0.00 0.03 0.02 0.01 0.00 0.00 0.00 0.01 0.07 0.06 0.01 0.00 0.00 0.00 0.01 0.01 0.05
0.00 0.00 0.00 0.00 0.00 0.00 0.00 0.00 0.00 0.00 0.00 0.00 0.00 0.00 0.00 0.00 nan nan 0.00 0.00 0.00 0.00 0.00 0.00 0.00 0.01 nan nan 0.12 0.11 0.05 0.00 nan nan nan nan nan nan nan 0.10 0.38 0.82 0.99
0.00 0.00 0.00 0.00 0.00 0.00 0.00 0.00 0.00 0.00 0.00 0.04 0.00 0.00 nan 0.00 nan nan nan 0.00 0.02 0.11 0.01 0.00 nan 0.00 nan nan 0.15 0.26 0.28 0.10 0.09 0.05 0.04 0.02 nan nan nan 0.02 0.14 0.37 0.39
0.00 0.00 0.00 0.00 0.00 0.00 0.00 0.00 0.00 0.00 0.00 0.01 0.01 0.01 0.00 0.00 0.00 nan nan 0.03 0.20 0.31 0.22 0.21 0.12 nan nan nan nan 0.24 0.40 0.18 0.73 0.60 0.56 0.48 0.20 0.12 0.24 0.13 0.04 0.18 0.47
0.00 0.00 0.00 0.00 0.00 0.00 0.00 0.00 0.00 0.00 0.01 0.02 0.02 0.15 0.21 0.01 nan nan nan nan nan 0.29 0.34 0.45 0.50 nan nan nan 0.44 nan nan 0.30 1.31 1.90 2.05 1.89 1.36 1.06 0.48 0.29 0.04 0.10 0.18
0.00 0.00 0.00 0.00 0.00 0.00 0.00 0.01 0.11 0.01 0.13 0.05 0.22 0.24 0.24 0.18 0.17 nan nan nan nan 0.61 0.56 0.76 nan nan nan 0.19 nan nan 0.73 1.55 2.26 3.06 2.60 2.08 1.27 0.80 0.69 1.22 0.84 0.86 0.77
0.00 0.00 0.00 0.00 0.00 0.00 0.07 0.10 0.16 0.20 0.26 0.25 0.31 0.37 0.32 0.29 0.25 0.28 0.37 0.36 nan 0.69 0.20 1.00 0.69 0.74 0.43 0.89 1.35 1.45 1.69 1.90 2.42 2.65 2.56 2.06 1.77 2.15 1.91 1.07 1.60 1.54 1.82
0.00 0.00 0.00 0.00 0.01 0.04 0.03 0.10 0.16 0.07 0.27 0.44 0.51 0.51 0.90 1.26 0.76 0.39 0.56 0.72 0.75 0.56 0.67 0.87 1.24 1.16 1.41 1.48 1.49 1.69 1.68 1.84 2.14 2.03 2.06 1.85 1.52 1.23 1.22 0.86 0.97 1.11 1.25
0.00 0.01 0.08 0.12 0.12 0.13 0.24 0.39 nan nan nan nan nan 0.44 0.65 nan nan nan nan nan nan nan 1.39 1.92 2.62 2.54 2.00 1.49 1.38 1.36 1.02 0.99 1.01 1.06 1.17 1.08 1.09 1.18 1.12 0.97 0.77 0.86 1.11
0.02 0.03 0.18 0.24 0.25 0.31 0.40 0.47 0.89 0.56 nan nan nan nan nan nan nan nan nan nan nan nan 1.20 1.02 1.71 1.89 1.05 0.85 1.09 0.84 1.12 0.95 0.39 0.77 0.86 0.93 0.94 0.86 0.97 0.90 1.04 0.91 1.04
0.06 0.16 0.31 0.41 0.53 0.59 0.49 0.52 0.68 0.86 1.20 1.10 nan nan nan nan nan nan nan nan 0.80 nan 0.62 1.03 1.28 1.29 1.01 1.07 1.15 1.01 0.86 0.91 0.95 0.91 1.09 1.31 1.38 1.18 1.28 0.99 0.77 1.05 0.76
0.13 0.28 0.30 0.35 0.44 0.43 0.44 0.44 0.52 0.70 0.76 0.65 0.54 0.34 0.32 nan nan nan nan 0.66 0.86 0.60 0.50 0.52 0.64 0.56 0.61 0.55 0.95 1.04 1.11 1.18 1.21 2.00 1.35 1.47 2.72 1.00 1.13 0.78 0.70 0.75 0.83
0.18 0.08 0.20 0.32 0.40 0.42 0.42 0.50 0.56 0.63 0.68 0.70 0.67 0.58 0.58 0.48 1.50 2.53 1.48 2.11 1.34 0.64 0.62 0.43 0.41 0.41 0.49 0.49 1.03 1.68 1.58 1.47 1.12 1.02 1.91 2.93 2.66 1.21 1.31 1.14 1.22 1.44 0.73
0.25 0.31 0.04 0.20 0.26 0.32 0.38 0.50 0.45 0.55 0.61 0.61 0.76 1.18 0.14 0.39 0.72 0.74 0.65 0.93 0.67 0.50 0.84 0.40 0.51 0.64 0.65 0.75 0.51 0.82 0.42 2.07 0.76 0.86 0.87 1.01 5.15 1.83 0.88 0.79 0.90 0.62 0.55
0.26 0.27 0.30 0.39 0.27 0.39 0.35 0.31 0.47 0.54 0.54 0.57 0.63 0.66 0.68 0.69 0.50 0.49 0.51 1.07 1.86 0.55 0.44 0.55 0.43 0.37 0.39 0.46 0.52 1.72 1.33 2.05 1.56 1.17 1.08 1.15 0.98 1.07 0.95 0.96 1.11 1.11 0.77
0.25 0.39 0.35 0.33 0.27 1.20 0.59 0.37 0.53 0.65 0.52 0.64 0.50 0.74 0.70 0.86 0.94 0.61 0.85 1.48 0.65 0.81 0.63 0.48 1.06 0.61 0.53 0.76 0.66 0.49 0.97 0.85 0.90 1.20 1.63 1.57 1.00 1.11 1.61 1.20 0.91 1.00 0.97
0.31 0.50 0.37 0.53 0.71 0.38 0.73 1.22 0.72 1.51 0.50 0.84 1.78 1.47 1.03 0.82 2.47 1.91 1.91 2.48 1.40 1.98 2.02 2.10 0.67 0.45 0.49 1.87 0.98 0.71 0.53 0.96 0.72 0.79 0.85 1.34 1.05 0.96 1.26 1.14 1.01 0.90 0.99
0.73 1.19 1.10 0.69 0.67 1.32 1.95 1.13 1.42 1.57 1.43 1.89 2.45 1.76 0.62 1.30 1.06 3.04 2.21 1.54 1.47 2.46 1.17 1.59 1.27 0.76 0.94 0.85 0.71 0.24 0.51 1.20 1.26 1.41 1.11 0.60 1.00 1.08 1.10 1.04 1.40 1.11 1.00
0.43 0.49 0.76 0.84 0.98 1.67 1.75 2.59 2.44 1.93 1.96 2.26 2.32 2.60 1.61 1.19 1.05 2.57 1.80 1.67 1.52 1.44 1.30 1.38 1.16 0.86 0.77 0.74 0.44 1.57 1.67 1.63 1.75 1.70 1.72 0.89 1.43 1.41 1.32 1.11 0.96 1.15 0.69
SL_Ratio
nan nan nan nan nan nan nan nan nan nan nan nan nan nan nan nan nan nan nan nan nan nan nan nan nan nan nan nan nan nan nan nan 6.8 6.7 nan nan nan nan nan nan nan nan nan
nan nan nan nan nan nan nan nan nan nan nan nan nan nan nan nan nan nan nan nan nan nan nan nan nan nan nan nan nan nan 0.0 nan 6.9 6.9 nan nan nan nan nan nan nan nan nan
nan nan nan nan nan nan nan nan nan nan nan nan nan nan nan nan nan nan nan nan nan nan nan nan nan nan nan nan 6.7 6.7 10.0 6.7 6.5 5.0 3.3 2.9 nan nan nan nan nan nan nan
nan nan nan nan nan nan nan nan nan nan nan nan nan nan nan nan nan nan nan nan nan nan nan nan nan nan 5.0 nan 10.0 6.5 6.8 4.9 5.0 4.3 3.1 2.7 2.9 2.9 3.1 2.6 2.5 2.6 nan
nan nan nan nan nan nan nan nan nan nan nan nan nan nan nan nan nan nan nan nan nan nan nan nan nan nan nan nan nan 2.3 6.0 5.7 4.5 4.2 3.6 3.0 2.8 2.9 2.8 2.6 2.5 2.5 2.5
nan nan nan nan nan nan nan nan nan nan nan nan nan nan nan nan nan nan nan nan nan nan nan nan nan nan nan nan nan nan nan 8.0 8.1 4.9 4.4 4.6 4.4 3.2 2.9 2.8 2.7 2.9 3.9
nan nan nan nan nan nan nan nan nan nan nan nan nan nan nan nan nan nan nan nan nan nan nan nan nan nan nan 10.0 nan nan nan nan 3.3 7.8 8.7 5.5 5.2 4.7 4.2 3.5 4.0 3.3 3.1
nan nan nan nan nan nan nan nan nan nan nan nan nan nan nan nan nan nan nan nan nan nan nan nan 10.0 6.7 nan 6.8 7.5 7.8 nan nan nan 7.0 7.7 7.3 7.1 6.0 6.7 5.7 4.6 5.0 3.1
nan nan nan nan nan nan nan nan nan nan nan nan nan nan nan nan nan nan nan nan nan nan nan 10.0 6.9 6.7 nan nan 8.1 7.6 6.7 8.0 nan nan nan nan nan nan nan 3.1 3.2 3.5 3.5
nan nan nan nan nan nan nan nan nan nan nan 2.6 nan nan nan nan nan nan nan 4.0 4.9 3.3 4.6 6.7 nan nan nan nan 8.3 8.7 8.5 6.9 6.1 6.3 6.4 6.0 nan nan nan 5.3 3.2 4.5 3.6
nan nan nan nan nan nan nan nan nan nan nan 2.7 3.0 2.8 3.3 0.0 nan nan nan 3.2 3.8 4.5 3.4 3.1 2.6 nan nan nan nan 8.0 7.9 5.7 3.2 3.4 3.0 2.9 2.7 2.8 2.6 2.8 3.0 3.0 3.4
nan nan nan nan nan nan nan nan nan 5.0 3.6 3.3 3.8 3.2 2.9 3.1 nan nan nan nan nan 3.8 3.8 3.0 3.1 nan nan nan 4.0 nan nan 3.2 3.3 3.4 3.4 3.4 3.4 3.3 3.0 2.8 3.2 2.8 2.7
nan nan nan nan nan nan 0.0 3.5 3.3 3.9 3.9 4.4 4.3 4.1 3.8 3.5 3.4 nan nan nan nan 3.5 3.0 2.9 nan nan nan 3.0 nan nan 3.0 3.6 3.5 3.8 3.8 3.7 3.5 3.3 3.2 3.3 3.0 2.8 2.5
nan nan nan nan 4.0 4.3 3.4 3.3 3.7 3.9 4.3 4.6 4.9 4.7 4.4 4.1 4.0 3.9 4.0 3.5 nan 3.5 3.3 4.0 3.0 4.0 3.0 3.2 3.4 3.8 3.6 3.5 3.7 3.8 3.8 3.6 3.6 3.5 3.7 3.7 3.9 3.5 4.1
nan nan nan nan 2.9 3.1 3.0 3.3 3.8 4.1 4.4 5.0 5.0 4.9 4.8 4.7 4.1 3.9 4.0 3.9 3.7 4.0 4.2 4.2 4.0 4.0 4.2 3.9 3.8 3.8 3.8 3.9 4.1 4.1 4.0 4.1 4.1 4.1 4.1 3.7 3.7 3.7 4.2
nan 3.8 3.2 3.9 4.1 4.2 4.4 4.4 nan nan nan nan nan 4.5 4.0 nan nan nan nan nan nan nan 4.5 4.3 4.3 4.2 4.5 4.5 4.6 4.4 4.3 4.3 4.8 4.5 4.3 4.3 4.7 4.4 4.4 4.3 4.3 4.5 4.7
5.1 5.1 4.5 4.1 4.6 4.7 4.7 5.2 5.4 4.2 nan nan nan nan nan nan nan nan nan nan nan nan 4.9 4.6 4.8 4.6 5.0 5.5 5.8 5.4 5.3 5.1 5.6 4.8 4.7 4.6 4.5 4.6 4.5 4.6 4.4 4.6 4.7
5.0 3.0 4.4 4.5 4.8 4.9 5.0 5.0 4.8 5.1 4.8 4.5 nan nan nan nan nan nan nan nan 5.2 nan 5.3 5.7 5.4 5.4 6.0 6.3 6.3 6.0 5.3 4.9 4.6 4.8 4.5 4.3 4.2 4.7 4.5 4.6 4.8 4.9 5.0
4.3 4.3 4.4 4.2 4.0 4.3 4.3 4.5 4.7 5.0 5.1 5.2 5.0 4.6 4.0 nan nan nan nan 5.0 5.6 5.4 5.5 5.7 5.4 5.8 5.9 6.1 5.0 5.0 4.8 4.7 4.6 4.6 4.7 4.6 3.8 4.6 4.6 4.5 4.4 3.7 3.9
4.2 3.2 4.1 4.5 4.3 4.3 4.4 4.7 4.9 5.0 5.1 5.1 5.5 5.3 5.3 5.3 5.0 4.7 4.8 4.5 4.8 5.3 5.1 5.7 5.6 5.5 5.3 5.5 4.8 4.2 4.4 4.3 4.7 4.6 4.5 4.0 3.7 4.0 4.6 4.6 4.4 4.7 5.3
4.1 4.2 3.0 4.1 4.4 4.8 4.7 4.8 4.9 5.2 5.1 5.1 4.7 4.2 3.0 5.3 5.2 5.1 5.4 4.9 4.9 4.8 4.7 5.3 5.1 4.8 4.9 4.9 5.4 4.9 5.4 4.1 4.7 4.7 4.8 4.8 3.7 5.2 4.5 4.3 4.3 4.4 4.9
4.3 4.1 4.1 4.8 4.7 4.5 4.6 4.4 4.6 4.7 4.8 4.9 4.7 4.6 3.0 4.5 5.0 5.1 4.8 4.5 4.1 4.2 4.5 4.6 4.9 4.9 5.1 5.3 5.3 4.3 4.6 4.5 4.3 4.5 4.6 5.1 4.9 4.7 4.7 4.8 5.0 4.9 4.9
4.0 4.3 4.7 4.7 4.6 3.1 4.3 4.6 4.6 4.5 4.7 4.5 4.8 5.1 5.0 4.7 4.7 5.1 4.9 4.4 4.5 4.2 4.1 4.3 4.2 4.8 4.2 4.2 4.3 4.7 5.1 5.2 4.9 4.3 4.9 4.8 5.2 5.0 4.7 4.9 5.0 5.3 5.3
4.2 4.1 4.8 4.1 4.1 4.9 4.2 4.1 4.3 3.1 4.6 4.3 4.1 4.5 4.6 4.4 4.1 4.3 4.4 4.1 4.4 4.0 3.9 4.1 4.7 5.0 5.0 4.1 4.1 4.2 5.0 4.5 4.6 4.8 4.4 4.8 5.0 4.0 4.7 5.1 5.0 5.5 5.5
4.0 3.9 3.9 4.6 4.6 4.0 3.9 4.1 4.0 3.9 4.0 3.9 4.1 4.3 4.8 4.4 4.7 4.0 4.2 4.5 4.7 4.3 4.6 4.5 4.6 4.6 4.6 5.0 5.1 5.3 4.2 3.0 4.0 3.0 4.8 5.0 4.9 5.5 5.7 5.2 5.3 5.4 5.4
4.2 4.2 4.2 4.4 4.5 4.1 4.3 4.3 4.1 4.1 4.3 4.0 4.0 4.1 4.4 4.6 4.5 4.1 4.5 4.7 4.9 5.0 4.8 4.7 4.4 4.8 4.9 4.8 5.1 3.1 3.0 3.0 5.0 3.0 4.9 5.1 5.4 5.5 5.4 5.4 5.3 5.4 5.5